Find STARLINK-37498

NORAD ID: 799500910 Int'l Des: 2026-127S Constellation: starlink operational

当前视图

正在加载3D地球...

关于 STARLINK-37498

正在加载描述...

即将过境

Passes for default location (London). Set your location on the main map for personalized predictions.

高度历史

Loading altitude history...

两行轨道根数

1 99999C 2026127S 26159.95395832 .00868010 00000-0 877130-4 0 1593
2 99999 53.1614 304.6774 0008959 292.1056 264.1406 16.09707009 17
Epoch: Jun 8, 2026 • Age: 2 hours